YO7MGN Weather Reports


time (UTC)temp
C
wind
direction
speed
KPH
gust
KPH
rain 1hr
cm
rain 24hr
cm
rain mn
cm
humidity
%
barometer
mb
20260906040035 21 180 0.0 0.0 0.00 0.00 0.00 55 1018.3
20260906034533 21 150 0.0 0.0 0.00 0.00 0.00 56 1018.1
20260906033022 22 150 0.0 0.0 0.00 0.00 0.00 57 1017.8
20260906031519 22 150 0.0 0.0 0.00 0.00 0.00 58 1017.6
20260906030017 22 150 0.0 0.0 0.00 0.00 0.00 58 1017.3
20260906024516 22 150 0.0 0.0 0.00 0.00 0.00 57 1017.2
20260906023012 22 150 0.0 0.0 0.00 0.00 0.00 58 1016.9
20260906021509 23 150 0.0 0.0 0.00 0.00 0.00 56 1016.9
20260906020011 23 150 0.0 0.0 0.00 0.00 0.00 55 1016.7
20260906014505 23 150 0.0 0.0 0.00 0.00 0.00 55 1016.4
20260906013005 23 150 0.0 0.0 0.00 0.00 0.00 55 1016.4
20260906011504 23 150 0.0 0.0 0.00 0.00 0.00 55 1016.3
20260906010003 23 150 0.0 0.0 0.00 0.00 0.00 56 1016.1
20260906004503 23 150 0.0 1.6 0.00 0.00 0.00 56 1016.2
20260906003101 23 182 0.0 0.0 0.00 0.00 0.00 57 1016.0
20260906001557 23 182 0.0 0.0 0.00 0.00 0.00 56 1015.7
20260906000106 23 182 0.0 0.0 0.00 0.00 0.00 56 1015.6
20260905234618 23 182 0.0 1.6 0.00 0.00 0.00 56 1015.4
20260905233053 23 182 0.0 1.6 0.00 0.00 0.00 55 1015.4
20260905231555 23 182 0.0 0.0 0.00 0.00 0.00 54 1015.3
20260905230051 23 182 0.0 0.0 0.00 0.00 0.00 52 1015.0
20260905224547 24 182 0.0 0.0 0.00 0.00 0.00 51 1015.1
20260905223049 24 182 0.0 0.0 0.00 0.00 0.00 50 1015.2
20260905221643 25 182 0.0 0.0 0.00 0.00 0.00 48 1015.1
20260905220041 25 180 0.0 0.0 0.00 0.00 0.00 47 1015.1
20260905214539 25 184 0.0 0.0 0.00 0.00 0.00 46 1015.0
20260905213036 25 184 0.0 0.0 0.00 0.00 0.00 46 1014.7
20260905211538 25 184 0.0 0.0 0.00 0.00 0.00 45 1014.5
20260905204535 25 178 0.0 0.0 0.00 0.00 0.00 48 1014.3
20260905203029 25 178 0.0 0.0 0.00 0.00 0.00 51 1014.3
20260905201529 25 178 0.0 0.0 0.00 0.00 0.00 49 1014.1
20260905200028 26 178 0.0 0.0 0.00 0.00 0.00 48 1013.8
20260905194527 26 178 0.0 0.0 0.00 0.00 0.00 50 1013.7
20260905193026 26 178 0.0 0.0 0.00 0.00 0.00 50 1013.6
20260905191530 27 178 0.0 0.0 0.00 0.00 0.00 49 1013.5
20260905190026 27 178 0.0 0.0 0.00 0.00 0.00 47 1013.6
20260905184525 27 178 0.0 0.0 0.00 0.00 0.00 46 1013.6
20260905183025 28 178 0.0 0.0 0.00 0.00 0.00 46 1013.5
20260905181524 28 178 0.0 0.0 0.00 0.00 0.00 44 1013.4
20260905180023 30 178 0.0 0.0 0.00 0.00 0.00 42 1013.3
20260905174524 30 178 0.0 0.0 0.00 0.00 0.00 39 1013.1
20260905173023 31 178 0.0 0.0 0.00 0.00 0.00 38 1013.0
20260905171533 32 178 0.0 0.0 0.00 0.00 0.00 36 1012.9
20260905170025 33 178 0.0 0.0 0.00 0.00 0.00 33 1012.7
20260905164521 35 178 0.0 0.0 0.00 0.00 0.00 31 1012.7
20260905163030 35 178 0.0 0.0 0.00 0.00 0.00 28 1012.7
20260905161521 36 178 0.0 0.0 0.00 0.00 0.00 27 1012.7
20260905160020 36 178 0.0 0.0 0.00 0.00 0.00 26 1012.8
20260905154519 36 155 0.0 0.0 0.00 0.00 0.00 26 1012.7
20260905153021 36 151 0.0 0.0 0.00 0.00 0.00 25 1012.8
20260905151517 37 162 0.0 0.0 0.00 0.00 0.00 24 1012.9
20260905150019 37 178 0.0 0.0 0.00 0.00 0.00 23 1012.9
20260905144516 38 178 0.0 0.0 0.00 0.00 0.00 22 1013.0
20260905143014 38 172 0.0 0.0 0.00 0.00 0.00 22 1013.2
20260905141510 37 153 0.0 0.0 0.00 0.00 0.00 23 1013.2
20260905140008 38 173 0.0 0.0 0.00 0.00 0.00 23 1013.4
20260905134512 37 163 0.0 0.0 0.00 0.00 0.00 23 1013.5
20260905133008 37 173 0.0 0.0 0.00 0.00 0.00 24 1013.6
20260905131509 37 167 0.0 0.0 0.00 0.00 0.00 24 1013.7
20260905130003 36 190 0.0 0.0 0.00 0.00 0.00 24 1013.9
20260905124504 37 169 0.0 0.0 0.00 0.00 0.00 24 1014.0
20260905123103 38 142 0.0 0.0 0.00 0.00 0.00 22 1014.2
20260905121556 37 182 0.0 0.0 0.00 0.00 0.00 23 1014.5
20260905120054 37 161 0.0 0.0 0.00 0.00 0.00 24 1014.6
20260905114602 37 166 0.0 0.0 0.00 0.00 0.00 24 1014.9
20260905113044 37 191 0.0 0.0 0.00 0.00 0.00 25 1015.1
20260905111601 36 155 0.0 0.0 0.00 0.00 0.00 26 1015.2
20260905110036 36 10 0.0 0.0 0.00 0.00 0.00 28 1015.4
20260905104534 36 11 0.0 0.0 0.00 0.00 0.00 28 1015.5
20260905103028 36 66 0.0 0.0 0.00 0.00 0.00 28 1015.6
20260905101526 35 90 0.0 0.0 0.00 0.00 0.00 29 1015.7
20260905100022 34 171 0.0 0.0 0.00 0.00 0.00 31 1015.8
20260905094520 33 181 0.0 0.0 0.00 0.00 0.00 31 1016.0
20260905093013 33 111 0.0 0.0 0.00 0.00 0.00 33 1016.1
20260905091508 32 173 0.0 0.0 0.00 0.00 0.00 35 1016.2
20260905090007 31 164 0.0 0.0 0.00 0.00 0.00 36 1016.3
20260905084607 31 55 0.0 0.0 0.00 0.00 0.00 38 1016.4
20260905083055 30 52 0.0 0.0 0.00 0.00 0.00 39 1016.5
20260905081551 28 177 0.0 0.0 0.00 0.00 0.00 42 1016.5
20260905074548 26 178 0.0 0.0 0.00 0.00 0.00 46 1016.7
20260905073038 26 178 0.0 0.0 0.00 0.00 0.00 47 1016.7
20260905071535 25 178 0.0 0.0 0.00 0.00 0.00 50 1016.7
20260905070029 24 182 0.0 0.0 0.00 0.00 0.00 53 1016.7
20260905064524 23 17 0.0 0.0 0.00 0.00 0.00 56 1016.7
20260905063023 22 18 0.0 0.0 0.00 0.00 0.00 59 1016.7
20260905061525 21 18 0.0 0.0 0.00 0.00 0.00 63 1016.8
20260905060014 20 18 0.0 0.0 0.00 0.00 0.00 67 1016.9
20260905054513 18 18 0.0 0.0 0.00 0.00 0.00 70 1016.7
20260905053005 17 18 0.0 0.0 0.00 0.00 0.00 73 1016.8
20260905051510 17 18 0.0 1.6 0.00 0.00 0.00 73 1016.8
20260905050003 17 18 0.0 0.0 0.00 0.00 0.00 73 1016.7
20260905044504 17 18 0.0 1.6 0.00 0.00 0.00 73 1016.9
20260905041608 17 18 0.0 0.0 0.00 0.00 0.00 73 1016.7